USA 170

Last updated on Mon Nov 03 2025 00:02:55 GMT+0000 (Coordinated Universal Time)

1 27875U 03040A 25305.99280921 .00000141 00000+0 00000+0 0 9995 2 27875 10.0147 50.0492 0002465 201.4264 171.6264 1.00272259 30716
UTC large
Height (km)
Speed (km/s)
/
Latitude / Longitude
Inclination (degrees)
Orbital Period (minutes)
Azimuth
Elevation
Range (km)
Doppler Factor

Next 0 passes for location: London (51.5072 / 0.1276)

Sorry there are no passes over London.